DW4236 Weather Reports


time (UTC)temp
C
wind
direction
speed
KPH
gust
KPH
rain 1hr
cm
rain 24hr
cm
rain mn
cm
humidity
%
barometer
mb
20260505081103 14 272 0.0 1.6 0.00 0.00 0.00 69 1010.2
20260505080605 14 278 0.0 3.2 0.00 0.00 0.00 69 1010.1
20260505080104 14 280 1.6 8.0 0.00 0.00 0.00 69 1010.2
20260505075604 14 254 1.6 4.8 0.00 0.00 0.00 69 1010.3
20260505075104 14 252 3.2 8.0 0.00 0.00 0.00 68 1010.3
20260505074603 14 258 1.6 3.2 0.00 0.00 0.00 68 1010.4
20260505074104 15 280 3.2 8.0 0.00 0.00 0.00 68 1010.4
20260505073605 15 259 1.6 4.8 0.00 0.00 0.00 68 1010.4
20260505073104 15 255 0.0 4.8 0.00 0.00 0.00 67 1010.4
20260505072104 15 239 3.2 16.1 0.00 0.00 0.00 67 1010.4
20260505071605 15 250 1.6 16.1 0.00 0.00 0.00 66 1010.3
20260505071105 15 264 3.2 8.0 0.00 0.00 0.00 66 1010.4
20260505070604 15 298 3.2 9.7 0.00 0.00 0.00 66 1010.4
20260505070104 15 295 1.6 4.8 0.00 0.00 0.00 65 1010.4
20260505065104 15 259 0.0 9.7 0.00 0.00 0.00 64 1010.3
20260505064605 15 251 3.2 12.9 0.00 0.00 0.00 63 1010.2
20260505064104 15 272 4.8 12.9 0.00 0.00 0.00 63 1010.3
20260505063603 15 219 8.0 14.5 0.00 0.00 0.00 63 1010.3
20260505063104 15 204 3.2 8.0 0.00 0.00 0.00 63 1010.2
20260505062604 15 229 3.2 9.7 0.00 0.00 0.00 62 1010.2
20260505062104 15 217 3.2 9.7 0.00 0.00 0.00 62 1010.3
20260505061604 15 230 3.2 11.3 0.00 0.00 0.00 62 1010.3
20260505060605 15 249 4.8 11.3 0.00 0.00 0.00 61 1010.4
20260505060105 15 243 3.2 9.7 0.00 0.00 0.00 60 1010.5
20260505055604 15 271 8.0 16.1 0.00 0.00 0.00 60 1010.5
20260505055104 15 304 0.0 3.2 0.00 0.00 0.00 59 1010.5
20260505054605 15 294 3.2 11.3 0.00 0.00 0.00 59 1010.5
20260505054105 15 281 3.2 12.9 0.00 0.00 0.00 59 1010.6
20260505053603 16 258 4.8 11.3 0.00 0.00 0.00 58 1010.6
20260505053104 16 282 3.2 12.9 0.00 0.00 0.00 58 1010.6
20260505051604 15 281 4.8 9.7 0.00 0.00 0.00 58 1010.5
20260505051104 16 290 1.6 12.9 0.00 0.00 0.00 57 1010.5
20260505050604 16 252 1.6 4.8 0.00 0.00 0.00 57 1010.5
20260505050105 16 306 3.2 9.7 0.00 0.00 0.00 56 1010.4
20260505041604 16 281 3.2 12.9 0.00 0.00 0.00 56 1010.7
20260505041104 16 276 0.0 1.6 0.00 0.00 0.00 56 1010.6
20260505040604 16 276 1.6 8.0 0.00 0.00 0.00 55 1010.7
20260505040104 16 242 3.2 14.5 0.00 0.00 0.00 56 1010.7
20260505035604 16 270 0.0 3.2 0.00 0.00 0.00 56 1010.7
20260505035104 16 273 1.6 8.0 0.00 0.00 0.00 56 1010.7
20260505034604 15 263 3.2 11.3 0.00 0.00 0.00 57 1010.7
20260505034104 15 266 1.6 4.8 0.00 0.00 0.00 57 1010.8
20260505033605 15 266 1.6 4.8 0.00 0.00 0.00 56 1010.8
20260505033104 15 266 3.2 4.8 0.00 0.00 0.00 56 1010.9
20260505032605 15 266 0.0 4.8 0.00 0.00 0.00 57 1010.9
20260505032105 15 266 0.0 3.2 0.00 0.00 0.00 56 1010.9
20260505031604 15 266 0.0 3.2 0.00 0.00 0.00 56 1010.9
20260505031103 16 266 0.0 1.6 0.00 0.00 0.00 56 1010.9
20260505030104 16 266 1.6 4.8 0.00 0.00 0.00 55 1010.9
20260505025603 16 266 1.6 3.2 0.00 0.00 0.00 55 1010.9
20260505024604 16 254 0.0 3.2 0.00 0.00 0.00 54 1010.9
20260505024105 16 280 3.2 8.0 0.00 0.00 0.00 54 1010.9
20260505023104 16 274 3.2 4.8 0.00 0.00 0.00 54 1011.0
20260505022605 16 272 1.6 9.7 0.00 0.00 0.00 54 1011.0
20260505022105 16 286 0.0 4.8 0.00 0.00 0.00 54 1011.0
20260505021604 16 201 1.6 3.2 0.00 0.00 0.00 54 1011.0
20260505021103 16 234 1.6 4.8 0.00 0.00 0.00 54 1011.1
20260505020604 16 244 0.0 4.8 0.00 0.00 0.00 53 1011.0
20260505020104 16 284 0.0 9.7 0.00 0.00 0.00 53 1011.0
20260505015604 16 233 1.6 4.8 0.00 0.00 0.00 53 1010.9
20260505015104 16 222 0.0 1.6 0.00 0.00 0.00 53 1010.9
20260505014604 16 222 1.6 4.8 0.00 0.00 0.00 53 1010.9
20260505014103 16 262 1.6 4.8 0.00 0.00 0.00 53 1010.9
20260505013604 16 253 1.6 4.8 0.00 0.00 0.00 53 1010.8
20260505013105 16 253 1.6 3.2 0.00 0.00 0.00 53 1010.7
20260505012604 17 251 1.6 4.8 0.00 0.00 0.00 52 1010.6
20260505012104 17 251 0.0 1.6 0.00 0.00 0.00 52 1010.6
20260505011604 17 251 0.0 1.6 0.00 0.00 0.00 52 1010.5
20260505011104 17 251 0.0 3.2 0.00 0.00 0.00 51 1010.5
20260505010604 17 251 0.0 1.6 0.00 0.00 0.00 51 1010.4
20260505005604 17 251 0.0 1.6 0.00 0.00 0.00 49 1010.3
20260505005104 17 251 0.0 1.6 0.00 0.00 0.00 49 1010.2
20260505004604 17 251 0.0 0.0 0.00 0.00 0.00 49 1010.1
20260505003604 18 251 1.6 3.2 0.00 0.00 0.00 48 1010.0
20260505003105 18 251 0.0 0.0 0.00 0.00 0.00 47 1010.0
20260505002604 18 251 1.6 9.7 0.00 0.00 0.00 47 1009.9
20260505002104 18 274 1.6 4.8 0.00 0.00 0.00 47 1009.8
20260505001604 18 267 1.6 4.8 0.00 0.00 0.00 46 1009.7
20260505001104 18 266 1.6 4.8 0.00 0.00 0.00 45 1009.6
20260505000603 19 265 0.0 0.0 0.00 0.00 0.00 45 1009.5
20260505000104 19 265 0.0 3.2 0.00 0.00 0.00 44 1009.4
20260504235604 20 265 0.0 0.0 0.00 0.00 0.00 43 1009.4
20260504235104 20 264 3.2 8.0 0.00 0.00 0.00 42 1009.3
20260504234603 20 282 0.0 11.3 0.00 0.00 0.00 41 1009.2
20260504234104 20 279 3.2 9.7 0.00 0.00 0.00 41 1009.2
20260504233604 20 285 4.8 12.9 0.00 0.00 0.00 40 1009.2
20260504232604 20 244 3.2 8.0 0.00 0.00 0.00 41 1009.0
20260504232104 21 279 3.2 12.9 0.00 0.00 0.00 40 1008.9
20260504231604 21 231 1.6 19.3 0.00 0.00 0.00 41 1008.9
20260504231103 21 254 4.8 11.3 0.00 0.00 0.00 40 1008.9
20260504230604 21 260 4.8 19.3 0.00 0.00 0.00 40 1008.8
20260504230105 21 274 4.8 16.1 0.00 0.00 0.00 38 1008.8
20260504225604 21 270 8.0 19.3 0.00 0.00 0.00 39 1008.7
20260504225103 21 236 8.0 14.5 0.00 0.00 0.00 38 1008.7
20260504224604 21 229 8.0 19.3 0.00 0.00 0.00 37 1008.7
20260504224104 21 288 8.0 22.5 0.00 0.00 0.00 37 1008.7
20260504223104 22 263 8.0 19.3 0.00 0.00 0.00 37 1008.6
20260504222103 22 261 8.0 19.3 0.00 0.00 0.00 38 1008.6
20260504221604 22 285 9.7 20.9 0.00 0.00 0.00 37 1008.7
20260504221104 22 302 8.0 22.5 0.00 0.00 0.00 37 1008.7
20260504220104 22 274 6.4 19.3 0.00 0.00 0.00 37 1008.8
20260504215603 22 264 4.8 25.7 0.00 0.00 0.00 37 1008.8
20260504215105 22 292 4.8 24.1 0.00 0.00 0.00 36 1008.8
20260504214603 22 274 3.2 27.4 0.00 0.00 0.00 37 1008.9
20260504213603 22 290 11.3 32.2 0.00 0.00 0.00 36 1009.1
20260504213104 22 277 8.0 14.5 0.00 0.00 0.00 37 1009.1
20260504212604 22 268 8.0 19.3 0.00 0.00 0.00 35 1009.2
20260504212103 23 242 11.3 24.1 0.00 0.00 0.00 36 1009.1
20260504211604 23 276 9.7 19.3 0.00 0.00 0.00 36 1009.1
20260504210603 22 288 14.5 27.4 0.00 0.00 0.00 35 1009.2
20260504205604 23 268 9.7 29.0 0.00 0.00 0.00 36 1009.3
20260504205104 23 286 8.0 24.1 0.00 0.00 0.00 36 1009.3
20260504204604 23 235 4.8 19.3 0.00 0.00 0.00 37 1009.2
20260504204103 23 304 16.1 29.0 0.00 0.00 0.00 34 1009.3
20260504203605 23 283 9.7 19.3 0.00 0.00 0.00 37 1009.2
20260504202604 23 298 11.3 22.5 0.00 0.00 0.00 34 1009.3
20260504202104 23 299 16.1 25.7 0.00 0.00 0.00 33 1009.3
20260504201104 23 269 9.7 19.3 0.00 0.00 0.00 35 1009.3
20260504200604 22 299 11.3 27.4 0.00 0.00 0.00 35 1009.4
20260504200103 23 277 14.5 24.1 0.00 0.00 0.00 35 1009.5
20260504195603 23 303 6.4 24.1 0.00 0.00 0.00 34 1009.6
20260504195103 23 272 6.4 24.1 0.00 0.00 0.00 37 1009.7
20260504194604 23 258 11.3 22.5 0.00 0.00 0.00 36 1009.8
20260504194105 22 293 8.0 25.7 0.00 0.00 0.00 35 1009.8
20260504193604 23 281 14.5 25.7 0.00 0.00 0.00 35 1010.0
20260504193104 22 293 12.9 20.9 0.00 0.00 0.00 34 1009.9
20260504191605 22 282 12.9 22.5 0.00 0.00 0.00 34 1009.9
20260504191105 22 276 6.4 20.9 0.00 0.00 0.00 36 1009.9
20260504190604 22 289 9.7 25.7 0.00 0.00 0.00 36 1010.1
20260504185605 22 293 11.3 32.2 0.00 0.00 0.00 35 1010.2
20260504185104 22 307 9.7 35.4 0.00 0.00 0.00 35 1010.1
20260504184603 22 267 14.5 24.1 0.00 0.00 0.00 36 1010.2
20260504184104 22 245 9.7 27.4 0.00 0.00 0.00 37 1010.2
20260504182604 22 264 12.9 22.5 0.00 0.00 0.00 37 1010.4
20260504181604 22 315 11.3 22.5 0.00 0.00 0.00 37 1010.5
20260504181103 21 269 9.7 25.7 0.00 0.00 0.00 38 1010.7
20260504180103 21 271 9.7 19.3 0.00 0.00 0.00 40 1010.8
20260504175605 21 271 9.7 27.4 0.00 0.00 0.00 38 1010.9
20260504175103 21 280 14.5 35.4 0.00 0.00 0.00 37 1010.9
20260504174605 21 302 9.7 22.5 0.00 0.00 0.00 36 1011.0
20260504174104 21 312 11.3 25.7 0.00 0.00 0.00 39 1011.1
20260504173604 21 295 11.3 24.1 0.00 0.00 0.00 37 1011.2
20260504173104 21 306 9.7 19.3 0.00 0.00 0.00 37 1011.3
20260504172604 21 291 12.9 25.7 0.00 0.00 0.00 37 1011.3
20260504172103 21 285 8.0 20.9 0.00 0.00 0.00 40 1011.3
20260504171604 20 263 12.9 29.0 0.00 0.00 0.00 39 1011.4
20260504171104 20 251 12.9 29.0 0.00 0.00 0.00 39 1011.4
20260504170604 20 242 11.3 29.0 0.00 0.00 0.00 40 1011.4
20260504160104 20 274 8.0 24.1 0.00 0.00 0.00 39 1012.0
20260504151103 19 317 9.7 24.1 0.00 0.00 0.00 39 1012.6
20260504150605 18 330 9.7 22.5 0.00 0.00 0.00 41 1012.7
20260504150105 18 280 14.5 27.4 0.00 0.00 0.00 39 1012.8
20260504141105 17 299 12.9 32.2 0.00 0.00 0.00 39 1013.5
20260504140604 17 302 11.3 32.2 0.00 0.00 0.00 41 1013.5
20260504140107 17 299 12.9 27.4 0.00 0.00 0.00 40 1013.4
20260504130605 16 285 16.1 32.2 0.00 0.00 0.00 42 1013.7
20260504130105 15 316 8.0 27.4 0.00 0.00 0.00 44 1013.9
20260504120105 13 283 4.8 19.3 0.00 0.00 0.00 51 1014.1
20260504110605 10 299 6.4 14.5 0.00 0.00 0.00 58 1014.1
20260504110106 10 298 3.2 4.8 0.00 0.00 0.00 59 1014.2
20260504100604 9 306 4.8 12.9 0.00 0.00 0.00 58 1014.0
20260504100105 9 294 4.8 12.9 0.00 0.00 0.00 58 1013.9
20260504090105 9 294 8.0 16.1 0.00 0.00 0.00 59 1013.9
20260504081605 7 305 0.0 0.0 0.00 0.00 0.00 70 1013.7